Weather History for KITH - December, 2013

Change the Weather History Date:

Monday, December 16, 2013

  Actual Average Record
Temperature  
Mean Temperature 12 °F -  
Max Temperature 21 °F 36 °F 58 °F (1971)
Min Temperature 3 °F 22 °F -6 °F (1943)
Degree Days  
Heating Degree Days 53    
Moisture  
Dew Point 7 °F    
Average Humidity 74    
Maximum Humidity 88    
Minimum Humidity 57    
Precipitation  
Precipitation 0.00 in - - ()
Sea Level Pressure  
Sea Level Pressure 30.07 in    
Wind  
Wind Speed 11 mph (NW)    
Max Wind Speed 22 mph    
Max Gust Speed 23 mph    
Visibility 10 miles    
Events Snow    
Averages and records for this station are not official NWS values.
T = Trace of Precipitation, MM = Missing Value Source: NWS Daily Summary

Daily Weather History Graph

Daily Weather History Graph

Search for Another Location

Airport or City:

Trip Planner

Search our weather history database for the weather conditions in past years. The results will help you decide how hot, cold, wet, or windy it might be!

Date:

Astronomy

Dec. 16, 2013 Rise Set
Actual Time 7:29 AM EST 4:33 PM EST
Civil Twilight 6:57 AM EST 5:05 PM EST
Nautical Twilight 6:21 AM EST 5:41 PM EST
Astronomical Twilight 5:47 AM EST 6:15 PM EST
Moon 4:23 PM EST (12/16) 6:34 AM EST (12/16)
Length of Visible Light 10h 08m
Length of Day
9h 04m
Full, 100% of the Moon is Illuminated
Dec 16
Full
Dec 17
Full
Dec 25
Last Quarter
Jan 1
New
Jan 7
First Quarter

Hourly Weather History & Observations

Time (EST) Temp. Windchill Dew Point Humidity Pressure Visibility Wind Dir Wind Speed Gust Speed Precip Events Conditions
12:56 AM 20.1 °F 5.9 °F 10.0 °F 65% 29.88 in 10.0 mi West 16.1 mph - N/A   Overcast
1:56 AM 18.1 °F 3.9 °F 9.1 °F 68% 29.91 in 10.0 mi WNW 15.0 mph 23.0 mph 0.00 in Snow Light Snow
2:56 AM 18.1 °F 3.4 °F 8.1 °F 65% 29.93 in 10.0 mi WNW 16.1 mph - 0.00 in   Overcast
3:56 AM 18.1 °F 5.0 °F 9.1 °F 68% 29.94 in 10.0 mi West 12.7 mph - N/A   Overcast
4:25 AM 17.6 °F 5.0 °F 8.6 °F 68% 29.90 in 10.0 mi West 11.5 mph - N/A   Overcast
4:56 AM 17.1 °F 5.0 °F 9.1 °F 71% 29.96 in 10.0 mi West 10.4 mph - N/A   Overcast
5:56 AM 15.1 °F 2.5 °F 8.1 °F 74% 29.98 in 10.0 mi WNW 10.4 mph - N/A   Partly Cloudy
6:16 AM 12.2 °F 2.9 °F 6.8 °F 79% 29.93 in 10.0 mi WNW 5.8 mph - N/A   Clear
6:56 AM 15.1 °F 7.7 °F 8.1 °F 74% 30.01 in 10.0 mi WNW 4.6 mph - N/A   Scattered Clouds
7:56 AM 14.0 °F 3.9 °F 7.2 °F 74% 30.02 in 10.0 mi West 6.9 mph - N/A   Mostly Cloudy
8:56 AM 16.2 °F 6.5 °F 9.1 °F 74% 30.05 in 10.0 mi WNW 6.9 mph - N/A   Mostly Cloudy
9:56 AM 18.1 °F 3.4 °F 11.1 °F 74% 30.06 in 10.0 mi West 16.1 mph - N/A   Mostly Cloudy
10:56 AM 19.0 °F 5.0 °F 11.1 °F 71% 30.08 in 7.0 mi WNW 15.0 mph - 0.00 in Snow Light Snow Showers
11:56 AM 19.0 °F 5.6 °F 10.0 °F 68% 30.08 in 10.0 mi West 13.8 mph - 0.00 in   Mostly Cloudy
12:56 PM 19.0 °F 4.0 °F 8.1 °F 62% 30.08 in 10.0 mi WNW 17.3 mph - 0.00 in   Mostly Cloudy
1:56 PM 21.0 °F 5.0 °F 8.1 °F 57% 30.08 in 10.0 mi WNW 21.9 mph - 0.00 in   Mostly Cloudy
2:56 PM 19.0 °F 6.8 °F 9.1 °F 65% 30.10 in 10.0 mi NNW 11.5 mph - N/A   Mostly Cloudy
3:56 PM 18.1 °F 5.6 °F 8.1 °F 65% 30.12 in 10.0 mi NNW 11.5 mph - 0.00 in   Mostly Cloudy
4:56 PM 15.1 °F 5.2 °F 7.2 °F 71% 30.15 in 10.0 mi NNW 6.9 mph - 0.00 in   Scattered Clouds
5:56 PM 13.1 °F 7.1 °F 8.1 °F 80% 30.17 in 10.0 mi NE 3.5 mph - N/A   Scattered Clouds
6:56 PM 5.0 °F - 1.0 °F 84% 30.20 in 10.0 mi Calm Calm - N/A   Partly Cloudy
7:56 PM 4.1 °F -3.2 °F 0.1 °F 84% 30.22 in 10.0 mi North 3.5 mph - N/A   Clear
8:38 PM 3.2 °F -4.2 °F -0.4 °F 85% 30.15 in 10.0 mi East 3.5 mph - 0.00 in Snow Light Snow
8:56 PM 4.1 °F -3.2 °F 1.0 °F 87% 30.22 in 10.0 mi ENE 3.5 mph - 0.00 in   Scattered Clouds
9:56 PM 5.0 °F -5.6 °F 2.1 °F 88% 30.21 in 10.0 mi ENE 5.8 mph - N/A   Scattered Clouds
10:56 PM 6.1 °F -4.3 °F 3.0 °F 87% 30.22 in 10.0 mi East 5.8 mph - 0.00 in   Overcast
11:56 PM 5.0 °F -2.1 °F 1.0 °F 84% 30.20 in 10.0 mi East 3.5 mph - N/A   Clear